Location: Hazelwood
(35.4687°N, 83.0040°W)
Time: 23:06:02
(UTC+00:00)

Hubble Space Telescope - Visible Passes

Search period start: 06 December 2022 00:00
Search period end: 16 December 2022 00:00
Orbit: 530 x 534 km, 28.5° (Epoch: 06 December)

Date Brightness Start Highest point End Pass type
(mag) Time Alt. Az. Time Alt. Az. Time Alt. Az.
06 Dec 3.1 11:51:26 10° SW 11:54:33 21° SSE 11:57:42 10° ESE visible
07 Dec 3.6 10:01:08 10° SSE 10:01:25 10° SSE 10:01:42 10° SSE visible
07 Dec 2.8 11:38:33 10° SW 11:41:50 24° SSE 11:45:07 10° ESE visible
08 Dec 3.6 09:49:24 12° SSE 09:49:24 12° SSE 09:50:21 10° SE visible
08 Dec 2.6 11:25:42 10° SW 11:29:07 26° S 11:32:31 10° ESE visible
09 Dec 3.8 09:37:49 11° SE 09:37:49 11° SE 09:38:11 10° SE visible
09 Dec 2.4 11:13:02 11° SW 11:16:23 27° S 11:19:53 10° ESE visible
10 Dec 2.3 11:01:19 17° SW 11:03:39 29° S 11:07:13 10° ESE visible
11 Dec 2.2 10:49:32 24° SSW 10:50:56 30° S 10:54:32 10° ESE visible
12 Dec 2.0 10:37:41 29° SSW 10:38:12 30° S 10:41:48 10° ESE visible
13 Dec 2.2 10:25:47 30° S 10:25:47 30° S 10:29:04 10° ESE visible
14 Dec 2.6 10:13:52 25° SSE 10:13:52 25° SSE 10:16:18 10° ESE visible
14 Dec 2.9 11:50:26 10° WSW 11:53:16 18° SSW 11:56:06 10° SSE visible
15 Dec 3.1 10:01:56 19° SE 10:01:56 19° SE 10:03:30 10° SE visible
15 Dec 3.0 11:37:59 10° WSW 11:40:29 16° SSW 11:42:59 10° SSE visible
